Weather History for Tuxtla Gutierrez, Mexico

Change the Weather History Date:

Monday, September 30, 2013

  Actual Average Record
Temperature  
Mean Temperature 82 °F -  
Max Temperature 92 °F 75 °F 95 °F (2012)
Min Temperature 71 °F 63 °F 62 °F (2000)
Cooling Degree Days 16    
Growing Degree Days 32 (Base 50)    
Moisture  
Dew Point 70 °F    
Average Humidity 71    
Maximum Humidity 100    
Minimum Humidity 39    
Precipitation  
Precipitation 0.00 in - - ()
Sea Level Pressure  
Sea Level Pressure 29.88 in    
Wind  
Wind Speed 2 mph ()    
Max Wind Speed 9 mph    
Max Gust Speed -    
Visibility 7.2 miles    
Events Fog    
Averages and records for this station are not official NWS values.
T = Trace of Precipitation, MM = Missing Value Source: Averaged Metar Reports

Daily Weather History Graph

Daily Weather History Graph

Search for Another Location

Airport:

Trip Planner

Search our weather history database for the weather conditions in past years. The results will help you decide how hot, cold, wet, or windy it might be!

Date:

Astronomy

Sep. 30, 2013 Rise Set
Actual Time 7:02 AM CDT 7:01 PM CDT
Civil Twilight 6:40 AM CDT 7:23 PM CDT
Nautical Twilight 6:15 AM CDT 7:48 PM CDT
Astronomical Twilight 5:50 AM CDT 8:13 PM CDT
Moon 3:13 AM CDT (9/30) 4:03 PM CDT (9/30)
Length of Visible Light 12h 42m
Length of Day
11h 59m
Waning Crescent, 19% of the Moon is Illuminated
Sep 30
Waning Crescent
Oct 4
New
Oct 11
First Quarter
Oct 18
Full
Oct 26
Last Quarter

Hourly Weather History & Observations

Time (CDT) Temp. Heat Index Dew Point Humidity Pressure Visibility Wind Dir Wind Speed Gust Speed Precip Events Conditions
12:42 AM 77 °F - 70 °F 72% 29.86 in 8 mi South 2.2 mph - -   Scattered Clouds
3:45 AM 75 °F - 68 °F 74% 29.83 in 9 mi Calm Calm - -   Scattered Clouds
5:40 AM 73.4 °F - 71.6 °F 94% 29.93 in 1.5 mi NNE 2.3 mph - N/A   Mostly Cloudy
6:41 AM 71.6 °F - 71.6 °F 100% 29.85 in 1.5 mi Calm Calm - N/A   Mostly Cloudy
6:45 AM 73 °F - 68 °F 80% 29.86 in 9 mi NNW 2.2 mph - -   Mostly Cloudy
7:07 AM 71.6 °F - 69.8 °F 94% 29.96 in 0.5 mi Calm Calm - N/A Fog Fog
7:47 AM 71.6 °F - 71.6 °F 100% 29.98 in 0.8 mi WSW 2.3 mph - N/A   Mist
8:11 AM 73.4 °F - 71.6 °F 94% 29.98 in 1.0 mi Calm Calm - N/A   Mostly Cloudy
8:41 AM 77.0 °F - 71.6 °F 83% 29.98 in 3.0 mi Calm Calm - N/A   Mostly Cloudy
9:40 AM 78.8 °F - 71.6 °F 78% 29.90 in 5.0 mi Calm Calm - N/A   Mostly Cloudy
9:45 AM 80 °F - 70 °F 65% 29.91 in 9 mi SE 2.2 mph - -   Scattered Clouds
10:49 AM 82.4 °F 87.2 °F 71.6 °F 70% 29.99 in 7.0 mi ESE 3.5 mph - N/A   Mostly Cloudy
11:40 AM 84.2 °F 89.6 °F 71.6 °F 66% 29.97 in 7.0 mi ENE 3.5 mph - N/A   Mostly Cloudy
12:41 PM 86.0 °F 91.8 °F 71.6 °F 62% 29.85 in 7.0 mi Calm Calm - N/A   Scattered Clouds
12:45 PM 84 °F - 70 °F 55% 29.86 in 9 mi SE 2.2 mph - -   Scattered Clouds
1:43 PM 86.0 °F 89.4 °F 68.0 °F 55% 29.90 in 7.0 mi Calm Calm - N/A   Scattered Clouds
2:50 PM 87.8 °F 92.6 °F 69.8 °F 55% 29.86 in 8.0 mi Calm Calm - N/A   Scattered Clouds
3:45 PM 91 °F - 69 °F 39% 29.75 in 9 mi NW 2.2 mph - -   Scattered Clouds
3:48 PM 89.6 °F 94.7 °F 69.8 °F 52% 29.73 in 10.0 mi Calm Calm - N/A   Scattered Clouds
4:53 PM 89.6 °F 94.7 °F 69.8 °F 52% 29.84 in 10.0 mi SSE 4.6 mph - N/A   Scattered Clouds
5:49 PM 84.2 °F 89.6 °F 71.6 °F 66% 29.85 in 10.0 mi WNW 5.8 mph - N/A   Mostly Cloudy
6:45 PM 83 °F - 71 °F 58% 29.77 in 9 mi NW 2.2 mph - -   Scattered Clouds
6:46 PM 82.4 °F 85.4 °F 68.0 °F 62% 29.77 in 10.0 mi WNW 9.2 mph - N/A   Mostly Cloudy
7:47 PM 80.6 °F 83.2 °F 68.0 °F 65% 29.87 in 10.0 mi WNW 6.9 mph - N/A   Mostly Cloudy
8:50 PM 78.8 °F - 68.0 °F 69% 29.91 in 10.0 mi WNW 3.5 mph - N/A   Mostly Cloudy
9:45 PM 78 °F - 70 °F 70% 29.83 in 9 mi SW 2.2 mph - -   Scattered Clouds
9:52 PM 77.0 °F - 69.8 °F 78% 29.83 in 10.0 mi Calm Calm - N/A   Overcast
10:45 PM 75.2 °F - 69.8 °F 83% 29.95 in 10.0 mi Calm Calm - N/A   Mostly Cloudy